OOV-CUBE (TUBSAT-30)

Last updated on Mon Sep 21 2026 00:03:14 GMT+0000 (Coordinated Universal Time)

1 60240U 24128F 26263.52790221 .00001109 00000+0 96610-4 0 9992 2 60240 61.9928 253.0346 0031098 155.9884 204.2666 15.03110378120449
UTC large
Height (km)
Speed (km/s)
/
Latitude / Longitude
Inclination (degrees)
Orbital Period (minutes)
Azimuth
Elevation
Range (km)
Doppler Factor

Next 0 passes for location: London (51.5072 / 0.1276)

No passes found over London.
OOV-CUBE (TUBSAT-30)